sat.trackr.live / text

‹ back to catalog

ASTRA 5B (EGNOS/PRN 123)

NORAD 39617 · 2014-011B

PAYLOAD ACTIVE UNKNOWN

§ Identity

Operator
Country
SES
Launch date
2014-03-22
Launch site
FRGUI
Launch vehicle
Mass (kg)
RCS (m²)
21.62

Purposes: comms, nav

External: N2YO · Heavens-Above · Gunter

§ Orbital elements

Epoch: 2026-09-13T01:59:28.027392Z

Period
1,436.13 min
Inclination
0.1019°
Eccentricity
0.0002818
Mean motion
1.00269801 rev/d
Perigee alt
35,775.3 km
Apogee alt
35,799.0 km
Semi-major
42,165.3 km
B*
0.0000e+0
RAAN
294.1182°
Arg perigee
256.4298°
Mean anomaly
214.9017°
Rev number
4,554

§ Raw data

ASTRA 5B (EGNOS/PRN 123)1 39617U 14011B   26256.08296328  .00000125  00000+0  00000+0 0  99982 39617   0.1019 294.1182 0002818 256.4298 214.9017  1.00269801 45540

JSON: /api/v1/satellites/39617 · /tle

For live sub-satellite position, see the globe view (requires WebGL).

§ Visibility from observer

Set your observer location to see the next 7 days of passes ≥ 10°. The values pass through the URL so the page stays shareable.

No JS? Fill the form by hand. The geolocation button needs JavaScript.